| time (UTC) | temp F | wind direction | speed knots | gust knots | rain 1hr in | rain 24hr in | rain mn in | humidity % | barometer mb |
| 20260507083004 | 64 | 16 | 6.1 | 15.6 | 0.00 | 0.00 | 0.00 | 67 | 1015.3 |
| 20260507082503 | 66 | 18 | 5.2 | 12.2 | 0.00 | 0.00 | 0.00 | 63 | 1015.2 |
| 20260507082004 | 65 | 14 | 5.2 | 12.2 | 0.00 | 0.00 | 0.00 | 68 | 1015.0 |
| 20260507081714 | 65 | 7 | 5.2 | 12.2 | 0.00 | 0.00 | 0.00 | 66 | 1014.9 |
| 20260507081003 | 68 | 321 | 4.3 | 8.7 | 0.00 | 0.00 | 0.00 | 52 | 1014.9 |
| 20260507080503 | 67 | 296 | 5.2 | 11.3 | 0.00 | 0.00 | 0.00 | 52 | 1014.6 |
| 20260507080004 | 67 | 296 | 6.1 | 11.3 | 0.00 | 0.00 | 0.00 | 52 | 1014.8 |
| 20260507075714 | 67 | 297 | 6.1 | 11.3 | 0.00 | 0.00 | 0.00 | 54 | 1014.6 |
| 20260507075003 | 67 | 295 | 6.1 | 11.3 | 0.00 | 0.00 | 0.00 | 55 | 1014.6 |
| 20260507074504 | 66 | 303 | 6.1 | 9.6 | 0.00 | 0.00 | 0.00 | 56 | 1014.7 |
| 20260507074003 | 66 | 302 | 5.2 | 9.6 | 0.00 | 0.00 | 0.00 | 57 | 1014.5 |
| 20260507073503 | 66 | 317 | 4.3 | 9.6 | 0.00 | 0.00 | 0.00 | 56 | 1014.6 |
| 20260507073005 | 66 | 317 | 3.5 | 7.8 | 0.00 | 0.00 | 0.00 | 57 | 1014.8 |
| 20260507072503 | 65 | 328 | 3.5 | 7.0 | 0.00 | 0.00 | 0.00 | 57 | 1014.8 |
| 20260507072003 | 66 | 341 | 2.6 | 7.0 | 0.00 | 0.01 | 0.00 | 61 | 1014.7 |
| 20260507071503 | 66 | 305 | 0.9 | 4.3 | 0.00 | 0.01 | 0.00 | 59 | 1014.6 |
| 20260507071213 | 66 | 304 | 1.7 | 4.3 | 0.00 | 0.01 | 0.00 | 59 | 1014.9 |
| 20260507070714 | 67 | 307 | 1.7 | 4.3 | 0.00 | 0.01 | 0.00 | 58 | 1014.7 |
| 20260507070007 | 67 | 291 | 0.9 | 2.6 | 0.00 | 0.01 | 0.00 | 58 | 1014.8 |
| 20260507065503 | 67 | 296 | 0.9 | 2.6 | 0.00 | 0.01 | 0.00 | 60 | 1014.8 |
| 20260507065003 | 65 | 30 | 1.7 | 4.3 | 0.00 | 0.01 | 0.00 | 64 | 1014.7 |
| 20260507064503 | 65 | 53 | 2.6 | 5.2 | 0.00 | 0.01 | 0.00 | 67 | 1014.8 |
| 20260507064004 | 64 | 70 | 2.6 | 5.2 | 0.00 | 0.01 | 0.00 | 70 | 1014.9 |
| 20260507063716 | 64 | 69 | 2.6 | 5.2 | 0.00 | 0.01 | 0.00 | 72 | 1014.7 |
| 20260507063005 | 62 | 52 | 2.6 | 5.2 | 0.00 | 0.01 | 0.00 | 74 | 1014.8 |
| 20260507062503 | 63 | 29 | 2.6 | 5.2 | 0.00 | 0.01 | 0.00 | 75 | 1014.7 |
| 20260507062003 | 63 | 2 | 2.6 | 5.2 | 0.00 | 0.01 | 0.00 | 75 | 1014.7 |
| 20260507061503 | 63 | 340 | 2.6 | 5.2 | 0.00 | 0.01 | 0.00 | 76 | 1014.7 |
| 20260507061003 | 63 | 333 | 1.7 | 5.2 | 0.00 | 0.01 | 0.00 | 76 | 1014.8 |
| 20260507060503 | 62 | 356 | 1.7 | 5.2 | 0.00 | 0.01 | 0.00 | 76 | 1014.8 |
| 20260507060003 | 62 | 116 | 2.6 | 7.0 | 0.00 | 0.01 | 0.00 | 80 | 1014.6 |
| 20260507055503 | 60 | 122 | 3.5 | 7.0 | 0.00 | 0.01 | 0.00 | 83 | 1014.6 |
| 20260507055003 | 61 | 121 | 2.6 | 7.0 | 0.00 | 0.01 | 0.00 | 81 | 1014.7 |
| 20260507054503 | 61 | 193 | 2.6 | 7.0 | 0.00 | 0.01 | 0.00 | 81 | 1014.7 |
| 20260507054003 | 60 | 228 | 4.3 | 8.7 | 0.00 | 0.01 | 0.00 | 80 | 1014.4 |
| 20260507053504 | 60 | 232 | 5.2 | 8.7 | 0.00 | 0.01 | 0.00 | 82 | 1014.3 |
| 20260507053003 | 60 | 237 | 4.3 | 7.8 | 0.00 | 0.01 | 0.00 | 84 | 1014.4 |
| 20260507052505 | 59 | 264 | 3.5 | 7.8 | 0.00 | 0.01 | 0.00 | 86 | 1014.2 |
| 20260507052005 | 59 | 297 | 2.6 | 6.1 | 0.00 | 0.01 | 0.00 | 87 | 1014.5 |
| 20260507051715 | 59 | 309 | 2.6 | 6.1 | 0.00 | 0.01 | 0.00 | 86 | 1014.3 |
| 20260507051003 | 60 | 305 | 1.7 | 4.3 | 0.00 | 0.01 | 0.00 | 86 | 1014.1 |
| 20260507050503 | 60 | 359 | 0.9 | 3.5 | 0.00 | 0.01 | 0.00 | 85 | 1014.4 |
| 20260507050003 | 60 | 8 | 1.7 | 3.5 | 0.00 | 0.01 | 0.00 | 85 | 1014.3 |
| 20260507045504 | 60 | 344 | 1.7 | 4.3 | 0.00 | 0.01 | 0.00 | 86 | 1013.9 |
| 20260507045214 | 60 | 343 | 2.6 | 5.2 | 0.00 | 0.01 | 0.00 | 86 | 1014.0 |
| 20260507044506 | 61 | 309 | 1.7 | 5.2 | 0.00 | 0.02 | 0.00 | 86 | 1013.8 |
| 20260507044004 | 60 | 195 | 1.7 | 5.2 | 0.00 | 0.03 | 0.00 | 85 | 1013.8 |
| 20260507043713 | 60 | 172 | 2.6 | 6.1 | 0.00 | 0.03 | 0.00 | 85 | 1013.6 |
| 20260507043005 | 60 | 170 | 5.2 | 7.8 | 0.00 | 0.04 | 0.00 | 87 | 1013.6 |
| 20260507042503 | 60 | 172 | 5.2 | 7.8 | 0.00 | 0.04 | 0.00 | 87 | 1013.6 |
| 20260507042003 | 60 | 169 | 5.2 | 7.8 | 0.00 | 0.05 | 0.00 | 87 | 1013.9 |
| 20260507041503 | 60 | 166 | 5.2 | 7.8 | 0.00 | 0.05 | 0.00 | 87 | 1013.8 |
| 20260507041003 | 60 | 166 | 5.2 | 8.7 | 0.00 | 0.05 | 0.00 | 86 | 1013.7 |
| 20260507040713 | 60 | 166 | 5.2 | 8.7 | 0.00 | 0.05 | 0.00 | 86 | 1013.6 |
| 20260507040008 | 60 | 159 | 4.3 | 8.7 | 0.00 | 0.05 | 0.00 | 86 | 1013.5 |
| 20260507035713 | 60 | 152 | 4.3 | 7.0 | 0.00 | 0.05 | 0.00 | 86 | 1013.5 |
| 20260507035004 | 60 | 148 | 4.3 | 7.0 | 0.00 | 0.05 | 0.00 | 85 | 1013.5 |
| 20260507034503 | 60 | 168 | 4.3 | 7.8 | 0.00 | 0.05 | 0.00 | 85 | 1013.4 |
| 20260507034003 | 60 | 166 | 4.3 | 7.8 | 0.00 | 0.05 | 0.00 | 85 | 1013.3 |
| 20260507033504 | 59 | 155 | 5.2 | 7.8 | 0.00 | 0.05 | 0.00 | 88 | 1013.4 |
| 20260507033003 | 59 | 160 | 6.1 | 8.7 | 0.00 | 0.05 | 0.00 | 88 | 1013.4 |
| 20260507032503 | 59 | 160 | 6.1 | 8.7 | 0.00 | 0.05 | 0.00 | 88 | 1013.6 |
| 20260507032004 | 59 | 156 | 5.2 | 8.7 | 0.00 | 0.05 | 0.00 | 88 | 1013.4 |
| 20260507031713 | 59 | 160 | 5.2 | 8.7 | 0.00 | 0.05 | 0.00 | 88 | 1013.5 |
| 20260507031003 | 59 | 158 | 5.2 | 8.7 | 0.00 | 0.05 | 0.00 | 87 | 1013.6 |
| 20260507030713 | 59 | 155 | 4.3 | 8.7 | 0.00 | 0.05 | 0.00 | 86 | 1013.4 |
| 20260507030003 | 60 | 166 | 2.6 | 4.3 | 0.00 | 0.05 | 0.00 | 83 | 1013.4 |
| 20260507025712 | 60 | 191 | 1.7 | 5.2 | 0.00 | 0.05 | 0.00 | 83 | 1013.5 |
| 20260507025005 | 60 | 349 | 0.9 | 5.2 | 0.00 | 0.05 | 0.00 | 83 | 1013.5 |
| 20260507024503 | 60 | 152 | 0.9 | 4.3 | 0.00 | 0.05 | 0.00 | 82 | 1013.4 |
| 20260507024004 | 60 | 139 | 1.7 | 3.5 | 0.00 | 0.05 | 0.00 | 81 | 1013.5 |
| 20260507023503 | 61 | 120 | 0.9 | 3.5 | 0.00 | 0.05 | 0.00 | 82 | 1013.4 |
| 20260507023213 | 61 | 346 | 1.7 | 5.2 | 0.00 | 0.05 | 0.00 | 81 | 1013.4 |
| 20260507022503 | 61 | 308 | 1.7 | 5.2 | 0.00 | 0.05 | 0.00 | 80 | 1013.4 |
| 20260507022003 | 61 | 339 | 1.7 | 5.2 | 0.00 | 0.05 | 0.00 | 80 | 1013.4 |
| 20260507021503 | 61 | 360 | 3.5 | 5.2 | 0.00 | 0.05 | 0.00 | 78 | 1013.4 |
| 20260507021005 | 61 | 8 | 2.6 | 5.2 | 0.00 | 0.05 | 0.00 | 79 | 1013.5 |
| 20260507020503 | 62 | 15 | 1.7 | 5.2 | 0.00 | 0.05 | 0.00 | 80 | 1013.5 |
| 20260507020003 | 61 | 350 | 2.6 | 7.8 | 0.00 | 0.05 | 0.00 | 80 | 1013.4 |
| 20260507015503 | 61 | 337 | 2.6 | 7.8 | 0.00 | 0.05 | 0.00 | 81 | 1013.5 |
| 20260507015005 | 62 | 151 | 0.9 | 5.2 | 0.00 | 0.05 | 0.00 | 80 | 1013.5 |
| 20260507014714 | 62 | 100 | 0.9 | 4.3 | 0.00 | 0.05 | 0.00 | 81 | 1013.3 |
| 20260507014003 | 62 | 56 | 1.7 | 4.3 | 0.00 | 0.05 | 0.00 | 81 | 1013.3 |
| 20260507013503 | 62 | 84 | 0.9 | 4.3 | 0.00 | 0.05 | 0.00 | 81 | 1013.5 |
| 20260507013003 | 62 | 90 | 1.7 | 5.2 | 0.00 | 0.05 | 0.00 | 80 | 1013.4 |
| 20260507012503 | 62 | 113 | 2.6 | 5.2 | 0.00 | 0.05 | 0.00 | 80 | 1013.4 |
| 20260507012215 | 62 | 94 | 2.6 | 5.2 | 0.00 | 0.05 | 0.00 | 80 | 1013.5 |
| 20260507011503 | 62 | 356 | 2.6 | 5.2 | 0.00 | 0.05 | 0.00 | 79 | 1013.5 |
| 20260507011213 | 62 | 4 | 2.6 | 7.8 | 0.00 | 0.05 | 0.00 | 79 | 1013.3 |
| 20260507010503 | 62 | 14 | 4.3 | 8.7 | 0.00 | 0.05 | 0.00 | 79 | 1013.4 |
| 20260507010213 | 62 | 12 | 3.5 | 8.7 | 0.00 | 0.05 | 0.00 | 79 | 1013.3 |
| 20260507005505 | 63 | 55 | 1.7 | 4.3 | 0.00 | 0.05 | 0.00 | 77 | 1013.3 |
| 20260507005005 | 63 | 43 | 1.7 | 4.3 | 0.00 | 0.05 | 0.00 | 76 | 1013.4 |
| 20260507004503 | 63 | 2 | 1.7 | 4.3 | 0.00 | 0.05 | 0.00 | 75 | 1013.3 |
| 20260507004005 | 63 | 69 | 2.6 | 5.2 | 0.00 | 0.05 | 0.00 | 75 | 1013.4 |
| 20260507003503 | 63 | 44 | 2.6 | 5.2 | 0.00 | 0.05 | 0.00 | 75 | 1013.5 |
| 20260507003004 | 63 | 13 | 1.7 | 5.2 | 0.00 | 0.05 | 0.00 | 73 | 1013.3 |
| 20260507002503 | 63 | 12 | 1.7 | 7.0 | 0.00 | 0.05 | 0.00 | 74 | 1013.5 |
| 20260507002004 | 63 | 357 | 2.6 | 7.0 | 0.00 | 0.05 | 0.00 | 73 | 1013.5 |
| 20260507001503 | 63 | 357 | 2.6 | 7.0 | 0.00 | 0.05 | 0.00 | 73 | 1013.3 |
| 20260507001005 | 64 | 348 | 2.6 | 10.4 | 0.00 | 0.05 | 0.00 | 73 | 1013.6 |
| 20260507000503 | 64 | 343 | 3.5 | 10.4 | 0.00 | 0.05 | 0.00 | 72 | 1013.6 |
| 20260507000003 | 64 | 326 | 4.3 | 9.6 | 0.00 | 0.05 | 0.00 | 72 | 1013.5 |
| 20260506235503 | 64 | 277 | 4.3 | 9.6 | 0.00 | 0.05 | 0.00 | 70 | 1013.4 |
| 20260506235212 | 65 | 237 | 3.5 | 6.1 | 0.00 | 0.05 | 0.00 | 67 | 1013.4 |
| 20260506234505 | 65 | 244 | 4.3 | 7.8 | 0.00 | 0.05 | 0.00 | 65 | 1013.4 |
| 20260506234003 | 65 | 275 | 5.2 | 10.4 | 0.00 | 0.05 | 0.00 | 66 | 1013.2 |
| 20260506233503 | 65 | 292 | 4.3 | 10.4 | 0.00 | 0.05 | 0.00 | 67 | 1013.3 |
| 20260506233003 | 64 | 248 | 5.2 | 9.6 | 0.00 | 0.05 | 0.00 | 69 | 1013.5 |
| 20260506232503 | 64 | 201 | 6.1 | 11.3 | 0.00 | 0.05 | 0.00 | 70 | 1013.3 |
| 20260506232214 | 64 | 193 | 7.0 | 11.3 | 0.00 | 0.05 | 0.00 | 70 | 1013.4 |
| 20260506231713 | 64 | 184 | 8.7 | 11.3 | 0.00 | 0.05 | 0.00 | 71 | 1013.3 |
| 20260506231005 | 64 | 181 | 10.4 | 17.4 | 0.00 | 0.05 | 0.00 | 71 | 1013.0 |
| 20260506230503 | 65 | 181 | 13.0 | 17.4 | 0.00 | 0.05 | 0.00 | 69 | 1013.0 |
| 20260506230003 | 64 | 180 | 13.9 | 16.5 | 0.00 | 0.05 | 0.00 | 69 | 1013.3 |
| 20260506225503 | 65 | 183 | 13.0 | 16.5 | 0.00 | 0.05 | 0.00 | 69 | 1013.3 |
| 20260506225003 | 64 | 183 | 12.2 | 16.5 | 0.00 | 0.05 | 0.00 | 70 | 1013.2 |
| 20260506224503 | 64 | 181 | 12.2 | 19.1 | 0.00 | 0.05 | 0.00 | 70 | 1013.3 |
| 20260506224003 | 65 | 184 | 13.9 | 19.1 | 0.00 | 0.05 | 0.00 | 69 | 1013.4 |
| 20260506223503 | 65 | 184 | 12.2 | 19.1 | 0.00 | 0.05 | 0.00 | 68 | 1013.2 |
| 20260506223003 | 64 | 183 | 11.3 | 16.5 | 0.00 | 0.05 | 0.00 | 71 | 1013.3 |
| 20260506222503 | 64 | 177 | 11.3 | 14.8 | 0.00 | 0.05 | 0.00 | 71 | 1013.3 |
| 20260506222214 | 64 | 175 | 10.4 | 14.8 | 0.00 | 0.05 | 0.00 | 71 | 1013.4 |
| 20260506221504 | 64 | 181 | 9.6 | 12.2 | 0.00 | 0.05 | 0.00 | 71 | 1013.4 |
| 20260506221214 | 64 | 182 | 9.6 | 12.2 | 0.00 | 0.05 | 0.00 | 70 | 1013.5 |
| 20260506220504 | 64 | 180 | 8.7 | 12.2 | 0.00 | 0.05 | 0.00 | 70 | 1013.5 |
| 20260506220216 | 64 | 178 | 7.8 | 11.3 | 0.00 | 0.05 | 0.00 | 71 | 1013.3 |
| 20260506215713 | 64 | 172 | 7.8 | 10.4 | 0.00 | 0.05 | 0.05 | 72 | 1013.2 |
| 20260506215006 | 64 | 169 | 7.0 | 10.4 | 0.00 | 0.05 | 0.05 | 72 | 1013.3 |
| 20260506214503 | 64 | 171 | 7.0 | 10.4 | 0.00 | 0.05 | 0.05 | 73 | 1013.2 |
| 20260506214006 | 62 | 161 | 6.1 | 8.7 | 0.00 | 0.05 | 0.05 | 76 | 1013.4 |
| 20260506213503 | 62 | 157 | 6.1 | 7.8 | 0.00 | 0.05 | 0.05 | 79 | 1013.3 |
| 20260506213005 | 63 | 155 | 6.1 | 7.8 | 0.00 | 0.05 | 0.05 | 77 | 1013.4 |
| 20260506212503 | 63 | 153 | 6.1 | 7.8 | 0.00 | 0.05 | 0.05 | 75 | 1013.3 |
| 20260506212003 | 63 | 153 | 6.1 | 8.7 | 0.00 | 0.06 | 0.05 | 75 | 1013.3 |
| 20260506211503 | 64 | 148 | 4.3 | 8.7 | 0.00 | 0.07 | 0.05 | 75 | 1013.4 |
| 20260506211003 | 64 | 133 | 1.7 | 6.1 | 0.00 | 0.07 | 0.05 | 76 | 1013.5 |
| 20260506210503 | 64 | 57 | 0.9 | 2.6 | 0.00 | 0.07 | 0.05 | 76 | 1013.4 |
| 20260506210003 | 64 | 348 | 0.9 | 1.7 | 0.00 | 0.08 | 0.05 | 76 | 1013.5 |
| 20260506205503 | 64 | 13 | 1.7 | 3.5 | 0.00 | 0.09 | 0.05 | 76 | 1013.5 |
| 20260506205003 | 64 | 50 | 1.7 | 3.5 | 0.00 | 0.11 | 0.05 | 75 | 1013.4 |
| 20260506204714 | 64 | 72 | 1.7 | 3.5 | 0.00 | 0.12 | 0.05 | 75 | 1013.4 |
| 20260506204213 | 64 | 70 | 1.7 | 5.2 | 0.00 | 0.14 | 0.05 | 75 | 1013.3 |
| 20260506203503 | 64 | 64 | 2.6 | 5.2 | 0.00 | 0.16 | 0.05 | 74 | 1013.4 |
| 20260506203003 | 64 | 56 | 2.6 | 5.2 | 0.00 | 0.16 | 0.05 | 75 | 1013.3 |
| 20260506202503 | 64 | 38 | 3.5 | 4.3 | 0.00 | 0.16 | 0.05 | 74 | 1013.4 |
| 20260506202003 | 65 | 17 | 3.5 | 5.2 | 0.00 | 0.16 | 0.05 | 74 | 1013.3 |
| 20260506201714 | 65 | 10 | 3.5 | 5.2 | 0.00 | 0.17 | 0.05 | 73 | 1013.2 |
| 20260506201003 | 65 | 12 | 2.6 | 5.2 | 0.00 | 0.17 | 0.05 | 74 | 1013.5 |
| 20260506200503 | 65 | 2 | 2.6 | 5.2 | 0.00 | 0.18 | 0.05 | 74 | 1013.1 |
| 20260506200003 | 65 | 5 | 1.7 | 3.5 | 0.00 | 0.19 | 0.05 | 73 | 1013.2 |
| 20260506195503 | 65 | 14 | 2.6 | 5.2 | 0.00 | 0.19 | 0.05 | 73 | 1013.3 |
| 20260506195004 | 65 | 12 | 3.5 | 5.2 | 0.00 | 0.20 | 0.05 | 73 | 1013.2 |
| 20260506194505 | 65 | 7 | 3.5 | 6.1 | 0.00 | 0.21 | 0.05 | 73 | 1013.1 |
| 20260506194213 | 65 | 3 | 3.5 | 6.1 | 0.00 | 0.21 | 0.05 | 73 | 1013.0 |
| 20260506193505 | 65 | 18 | 2.6 | 6.1 | 0.00 | 0.21 | 0.05 | 73 | 1013.0 |
| 20260506193004 | 65 | 11 | 2.6 | 6.1 | 0.00 | 0.22 | 0.05 | 73 | 1012.8 |
| 20260506192503 | 65 | 3 | 2.6 | 6.1 | 0.00 | 0.22 | 0.05 | 73 | 1013.0 |
| 20260506192003 | 65 | 8 | 2.6 | 6.1 | 0.00 | 0.22 | 0.05 | 73 | 1012.9 |
| 20260506191503 | 65 | 356 | 3.5 | 6.1 | 0.00 | 0.22 | 0.05 | 73 | 1012.9 |
| 20260506191003 | 65 | 356 | 4.3 | 7.8 | 0.00 | 0.22 | 0.05 | 73 | 1012.8 |
| 20260506190505 | 65 | 3 | 5.2 | 8.7 | 0.00 | 0.22 | 0.05 | 73 | 1012.7 |
| 20260506190003 | 65 | 358 | 5.2 | 8.7 | 0.00 | 0.22 | 0.05 | 72 | 1012.5 |
| 20260506185503 | 65 | 358 | 5.2 | 11.3 | 0.00 | 0.22 | 0.05 | 71 | 1012.6 |
| 20260506185003 | 65 | 359 | 7.0 | 12.2 | 0.00 | 0.22 | 0.05 | 71 | 1012.4 |
| 20260506184713 | 65 | 360 | 7.8 | 12.2 | 0.00 | 0.22 | 0.05 | 70 | 1012.4 |
| 20260506184003 | 65 | 352 | 8.7 | 14.8 | 0.00 | 0.24 | 0.05 | 69 | 1012.3 |
| 20260506183713 | 65 | 346 | 8.7 | 14.8 | 0.00 | 0.25 | 0.05 | 69 | 1012.2 |
| 20260506183003 | 68 | 328 | 7.0 | 13.9 | 0.00 | 0.27 | 0.05 | 65 | 1012.2 |
| 20260506182505 | 68 | 303 | 4.3 | 9.6 | 0.00 | 0.29 | 0.05 | 64 | 1011.9 |
| 20260506182003 | 68 | 222 | 3.5 | 7.0 | 0.00 | 0.32 | 0.05 | 63 | 1011.8 |
| 20260506181503 | 68 | 199 | 5.2 | 11.3 | 0.00 | 0.33 | 0.05 | 63 | 1011.8 |
| 20260506181003 | 68 | 206 | 7.8 | 11.3 | 0.00 | 0.35 | 0.05 | 62 | 1011.7 |
| 20260506180503 | 68 | 210 | 7.0 | 11.3 | 0.00 | 0.38 | 0.05 | 62 | 1011.8 |
| 20260506180214 | 68 | 201 | 7.0 | 10.4 | 0.00 | 0.39 | 0.05 | 62 | 1011.6 |
| 20260506175503 | 69 | 191 | 7.0 | 12.2 | 0.00 | 0.42 | 0.05 | 62 | 1011.7 |
| 20260506175005 | 69 | 194 | 7.0 | 12.2 | 0.00 | 0.43 | 0.05 | 61 | 1011.5 |
| 20260506174505 | 69 | 193 | 6.1 | 9.6 | 0.00 | 0.45 | 0.05 | 61 | 1011.6 |
| 20260506174003 | 69 | 184 | 6.1 | 15.6 | 0.00 | 0.46 | 0.05 | 61 | 1011.6 |
| 20260506173503 | 69 | 186 | 7.0 | 15.6 | 0.00 | 0.47 | 0.05 | 60 | 1011.4 |
| 20260506173003 | 69 | 189 | 7.0 | 11.3 | 0.00 | 0.48 | 0.05 | 60 | 1011.3 |
| 20260506172503 | 70 | 178 | 7.8 | 14.8 | 0.00 | 0.48 | 0.05 | 59 | 1011.3 |
| 20260506172003 | 70 | 180 | 10.4 | 16.5 | 0.00 | 0.49 | 0.05 | 59 | 1011.2 |
| 20260506171503 | 70 | 184 | 11.3 | 16.5 | 0.00 | 0.49 | 0.05 | 59 | 1011.3 |
| 20260506171005 | 70 | 182 | 11.3 | 17.4 | 0.00 | 0.49 | 0.05 | 58 | 1011.2 |
| 20260506170503 | 70 | 179 | 8.7 | 17.4 | 0.00 | 0.49 | 0.05 | 58 | 1011.1 |
| 20260506170004 | 70 | 175 | 7.8 | 15.6 | 0.00 | 0.49 | 0.05 | 58 | 1011.0 |
| 20260506165505 | 70 | 188 | 10.4 | 17.4 | 0.00 | 0.50 | 0.05 | 58 | 1011.0 |
| 20260506165003 | 70 | 197 | 11.3 | 17.4 | 0.00 | 0.50 | 0.05 | 57 | 1010.8 |
| 20260506164503 | 70 | 189 | 10.4 | 17.4 | 0.00 | 0.50 | 0.05 | 57 | 1011.1 |
| 20260506164003 | 70 | 189 | 9.6 | 17.4 | 0.00 | 0.50 | 0.05 | 57 | 1011.2 |
| 20260506163504 | 70 | 184 | 10.4 | 17.4 | 0.00 | 0.50 | 0.05 | 57 | 1011.1 |
| 20260506163003 | 71 | 181 | 10.4 | 17.4 | 0.00 | 0.50 | 0.05 | 56 | 1011.1 |
| 20260506162503 | 71 | 188 | 8.7 | 15.6 | 0.00 | 0.50 | 0.05 | 55 | 1011.3 |
| 20260506162213 | 71 | 185 | 9.6 | 16.5 | 0.00 | 0.50 | 0.05 | 56 | 1011.1 |
| 20260506161503 | 71 | 179 | 12.2 | 22.6 | 0.00 | 0.50 | 0.05 | 54 | 1011.2 |
| 20260506161003 | 71 | 177 | 13.0 | 22.6 | 0.00 | 0.50 | 0.05 | 54 | 1011.2 |
| 20260506160712 | 71 | 171 | 12.2 | 19.1 | 0.00 | 0.50 | 0.05 | 54 | 1011.2 |
| 20260506160003 | 71 | 172 | 11.3 | 18.2 | 0.00 | 0.50 | 0.05 | 55 | 1011.3 |
| 20260506155503 | 71 | 180 | 13.9 | 21.7 | 0.00 | 0.50 | 0.05 | 55 | 1011.0 |
| 20260506155003 | 72 | 179 | 13.9 | 21.7 | 0.00 | 0.50 | 0.05 | 54 | 1011.2 |
| 20260506154714 | 72 | 169 | 12.2 | 20.0 | 0.00 | 0.50 | 0.05 | 54 | 1011.2 |
| 20260506154003 | 72 | 172 | 11.3 | 17.4 | 0.00 | 0.50 | 0.05 | 54 | 1011.1 |
| 20260506153503 | 72 | 179 | 13.0 | 19.1 | 0.00 | 0.50 | 0.05 | 53 | 1011.1 |
| 20260506153003 | 72 | 175 | 12.2 | 19.1 | 0.00 | 0.50 | 0.05 | 53 | 1011.1 |
| 20260506152504 | 72 | 172 | 12.2 | 19.1 | 0.00 | 0.50 | 0.05 | 53 | 1011.1 |
| 20260506152004 | 72 | 172 | 12.2 | 16.5 | 0.00 | 0.50 | 0.05 | 55 | 1011.2 |
| 20260506151503 | 72 | 174 | 10.4 | 16.5 | 0.00 | 0.50 | 0.05 | 55 | 1011.2 |
| 20260506151003 | 71 | 177 | 9.6 | 16.5 | 0.00 | 0.50 | 0.05 | 55 | 1011.2 |
| 20260506150503 | 71 | 173 | 10.4 | 17.4 | 0.00 | 0.50 | 0.05 | 55 | 1011.2 |
| 20260506150003 | 71 | 175 | 11.3 | 17.4 | 0.00 | 0.50 | 0.05 | 55 | 1011.1 |
| 20260506145503 | 71 | 175 | 9.6 | 16.5 | 0.00 | 0.50 | 0.05 | 55 | 1011.1 |
| 20260506145003 | 71 | 167 | 8.7 | 13.9 | 0.00 | 0.50 | 0.05 | 57 | 1011.0 |
| 20260506144505 | 71 | 172 | 8.7 | 13.9 | 0.00 | 0.50 | 0.05 | 57 | 1011.0 |
| 20260506144003 | 71 | 167 | 8.7 | 16.5 | 0.00 | 0.50 | 0.05 | 56 | 1010.9 |
| 20260506143714 | 71 | 166 | 8.7 | 16.5 | 0.00 | 0.50 | 0.05 | 56 | 1011.0 |
| 20260506143003 | 71 | 179 | 14.8 | 25.2 | 0.00 | 0.50 | 0.05 | 55 | 1010.9 |
| 20260506142503 | 71 | 183 | 17.4 | 25.2 | 0.00 | 0.50 | 0.05 | 53 | 1010.9 |
| 20260506142213 | 72 | 184 | 14.8 | 25.2 | 0.00 | 0.50 | 0.05 | 53 | 1011.0 |
| 20260506141503 | 71 | 183 | 13.9 | 20.9 | 0.00 | 0.50 | 0.05 | 54 | 1010.9 |
| 20260506141003 | 71 | 186 | 13.9 | 20.9 | 0.00 | 0.50 | 0.05 | 54 | 1011.1 |
| 20260506140503 | 71 | 188 | 13.9 | 22.6 | 0.00 | 0.50 | 0.05 | 55 | 1011.0 |
| 20260506140215 | 71 | 188 | 13.9 | 22.6 | 0.00 | 0.50 | 0.05 | 54 | 1011.2 |
| 20260506135503 | 72 | 190 | 12.2 | 20.9 | 0.00 | 0.50 | 0.05 | 55 | 1011.4 |
| 20260506135005 | 71 | 200 | 12.2 | 20.9 | 0.00 | 0.50 | 0.05 | 53 | 1011.3 |
| 20260506134713 | 72 | 194 | 12.2 | 20.0 | 0.00 | 0.50 | 0.05 | 54 | 1011.5 |
| 20260506134003 | 71 | 178 | 11.3 | 20.0 | 0.00 | 0.50 | 0.05 | 54 | 1011.6 |
| 20260506133503 | 71 | 177 | 13.0 | 21.7 | 0.00 | 0.50 | 0.05 | 54 | 1011.5 |
| 20260506133003 | 71 | 174 | 12.2 | 21.7 | 0.00 | 0.50 | 0.05 | 54 | 1011.5 |
| 20260506132713 | 71 | 168 | 11.3 | 18.2 | 0.00 | 0.50 | 0.05 | 54 | 1011.7 |
| 20260506132005 | 71 | 162 | 10.4 | 21.7 | 0.00 | 0.50 | 0.05 | 52 | 1011.8 |
| 20260506131503 | 71 | 167 | 9.6 | 21.7 | 0.00 | 0.50 | 0.05 | 52 | 1012.0 |
| 20260506131003 | 71 | 173 | 10.4 | 17.4 | 0.00 | 0.50 | 0.05 | 52 | 1011.9 |
| 20260506130504 | 71 | 172 | 9.6 | 18.2 | 0.00 | 0.50 | 0.05 | 52 | 1012.0 |
| 20260506130004 | 70 | 170 | 8.7 | 18.2 | 0.00 | 0.50 | 0.05 | 51 | 1012.0 |
| 20260506125503 | 70 | 172 | 10.4 | 18.2 | 0.00 | 0.50 | 0.05 | 51 | 1012.0 |
| 20260506125005 | 70 | 167 | 11.3 | 18.2 | 0.00 | 0.50 | 0.05 | 52 | 1012.1 |
| 20260506124503 | 70 | 171 | 12.2 | 21.7 | 0.00 | 0.50 | 0.05 | 52 | 1012.4 |
| 20260506124003 | 70 | 182 | 13.0 | 21.7 | 0.00 | 0.50 | 0.05 | 52 | 1012.2 |
| 20260506123503 | 70 | 187 | 13.9 | 20.9 | 0.00 | 0.50 | 0.05 | 54 | 1012.2 |
| 20260506123214 | 70 | 189 | 13.0 | 20.9 | 0.00 | 0.50 | 0.05 | 53 | 1012.3 |
| 20260506122503 | 70 | 180 | 9.6 | 20.0 | 0.00 | 0.50 | 0.05 | 54 | 1012.0 |
| 20260506122003 | 70 | 178 | 9.6 | 20.0 | 0.00 | 0.50 | 0.05 | 56 | 1012.2 |
| 20260506121503 | 71 | 188 | 9.6 | 16.5 | 0.00 | 0.50 | 0.05 | 56 | 1012.2 |
| 20260506121005 | 71 | 202 | 10.4 | 18.2 | 0.00 | 0.50 | 0.05 | 55 | 1012.1 |
| 20260506120503 | 70 | 197 | 11.3 | 18.2 | 0.00 | 0.50 | 0.05 | 56 | 1012.2 |
| 20260506120214 | 70 | 192 | 10.4 | 17.4 | 0.00 | 0.50 | 0.05 | 55 | 1012.2 |
| 20260506115503 | 70 | 184 | 12.2 | 19.1 | 0.00 | 0.50 | 0.05 | 54 | 1012.3 |
| 20260506115003 | 70 | 180 | 13.0 | 18.2 | 0.00 | 0.50 | 0.05 | 55 | 1012.2 |
| 20260506114505 | 70 | 177 | 11.3 | 18.2 | 0.00 | 0.50 | 0.05 | 56 | 1012.1 |
| 20260506114003 | 70 | 174 | 11.3 | 18.2 | 0.00 | 0.50 | 0.05 | 57 | 1012.1 |
| 20260506113505 | 70 | 181 | 11.3 | 19.1 | 0.00 | 0.50 | 0.05 | 57 | 1012.4 |
| 20260506113216 | 70 | 187 | 10.4 | 19.1 | 0.00 | 0.50 | 0.05 | 57 | 1012.4 |
| 20260506112504 | 69 | 184 | 13.0 | 20.9 | 0.00 | 0.50 | 0.05 | 60 | 1012.4 |
| 20260506112214 | 68 | 175 | 13.0 | 20.9 | 0.00 | 0.50 | 0.05 | 58 | 1012.5 |
| 20260506111503 | 69 | 161 | 9.6 | 14.8 | 0.00 | 0.50 | 0.05 | 60 | 1012.4 |
| 20260506111004 | 68 | 182 | 10.4 | 16.5 | 0.00 | 0.50 | 0.05 | 61 | 1012.8 |
| 20260506110503 | 68 | 187 | 11.3 | 18.2 | 0.00 | 0.50 | 0.05 | 62 | 1012.8 |
| 20260506110005 | 68 | 180 | 13.0 | 18.2 | 0.00 | 0.50 | 0.05 | 61 | 1012.8 |
| 20260506105504 | 67 | 177 | 11.3 | 18.2 | 0.00 | 0.50 | 0.05 | 63 | 1012.8 |
| 20260506105005 | 67 | 169 | 11.3 | 19.1 | 0.00 | 0.50 | 0.05 | 63 | 1012.8 |
| 20260506104503 | 67 | 166 | 12.2 | 19.1 | 0.00 | 0.50 | 0.05 | 63 | 1012.7 |
| 20260506104003 | 67 | 168 | 10.4 | 20.9 | 0.00 | 0.50 | 0.05 | 63 | 1012.9 |
| 20260506103503 | 67 | 176 | 9.6 | 20.9 | 0.00 | 0.50 | 0.05 | 63 | 1012.8 |
| 20260506103005 | 67 | 173 | 10.4 | 17.4 | 0.00 | 0.50 | 0.05 | 63 | 1012.9 |
| 20260506102505 | 67 | 175 | 13.9 | 23.5 | 0.00 | 0.50 | 0.05 | 63 | 1012.8 |
| 20260506102213 | 67 | 176 | 14.8 | 23.5 | 0.00 | 0.50 | 0.05 | 63 | 1012.9 |
| 20260506101503 | 67 | 189 | 12.2 | 23.5 | 0.00 | 0.50 | 0.05 | 63 | 1012.8 |
| 20260506101213 | 67 | 193 | 12.2 | 20.0 | 0.00 | 0.50 | 0.05 | 63 | 1013.1 |
| 20260506100503 | 66 | 174 | 13.9 | 20.0 | 0.00 | 0.50 | 0.05 | 63 | 1012.7 |
| 20260506100004 | 67 | 158 | 12.2 | 19.1 | 0.00 | 0.50 | 0.05 | 63 | 1012.8 |
| 20260506095505 | 67 | 160 | 10.4 | 20.0 | 0.00 | 0.50 | 0.05 | 62 | 1012.9 |
| 20260506095008 | 67 | 172 | 12.2 | 22.6 | 0.00 | 0.50 | 0.05 | 63 | 1012.8 |
| 20260506094503 | 67 | 183 | 13.0 | 22.6 | 0.00 | 0.50 | 0.05 | 62 | 1012.9 |
| 20260506094003 | 67 | 190 | 11.3 | 16.5 | 0.00 | 0.50 | 0.05 | 63 | 1013.0 |
| 20260506093503 | 67 | 186 | 12.2 | 19.1 | 0.00 | 0.50 | 0.05 | 62 | 1012.7 |
| 20260506093004 | 66 | 179 | 11.3 | 19.1 | 0.00 | 0.50 | 0.05 | 63 | 1013.0 |
| 20260506092505 | 67 | 176 | 9.6 | 16.5 | 0.00 | 0.50 | 0.05 | 63 | 1013.0 |
| 20260506092005 | 66 | 168 | 8.7 | 16.5 | 0.00 | 0.50 | 0.05 | 63 | 1012.9 |
| 20260506091503 | 66 | 165 | 7.8 | 16.5 | 0.00 | 0.50 | 0.05 | 63 | 1012.9 |
| 20260506091003 | 66 | 160 | 7.8 | 13.9 | 0.00 | 0.50 | 0.05 | 64 | 1012.9 |
| 20260506090503 | 66 | 165 | 11.3 | 19.1 | 0.00 | 0.50 | 0.05 | 63 | 1013.0 |
| 20260506090005 | 65 | 169 | 12.2 | 19.1 | 0.00 | 0.50 | 0.05 | 63 | 1013.0 |
| 20260506085504 | 66 | 170 | 10.4 | 18.2 | 0.00 | 0.50 | 0.05 | 64 | 1012.9 |
| 20260506085005 | 66 | 170 | 11.3 | 18.2 | 0.00 | 0.50 | 0.05 | 63 | 1012.9 |
| 20260506084503 | 66 | 165 | 12.2 | 20.0 | 0.00 | 0.50 | 0.05 | 64 | 1012.8 |
| 20260506084003 | 65 | 166 | 11.3 | 20.0 | 0.00 | 0.50 | 0.05 | 63 | 1013.0 |